Weather History for KLOT - April, 2014

Change the Weather History Date:

Monday, April 14, 2014

  Actual Average Record
Temperature  
Mean Temperature 46 °F 50 °F  
Max Temperature 63 °F 60 °F 85 °F (2003)
Min Temperature 29 °F 39 °F 27 °F (1997)
Degree Days  
Heating Degree Days 19 16  
Month to date heating degree days 239 250  
Since 1 July heating degree days 6893 5795  
Cooling Degree Days 0 0  
Month to date cooling degree days 0 0  
Year to date cooling degree days 0 0  
Moisture  
Dew Point 38 °F    
Average Humidity 89    
Maximum Humidity 100    
Minimum Humidity 71    
Precipitation  
Precipitation 0.21 in 0.13 in 0.52 in (1993)
Month to date precipitation 2.06 1.65  
Year to date precipitation 9.03 8.13  
Snow  
Snow 1.00 in 0.00 in - ()
Month to date snowfall 1.0 0.4  
Since 1 July snowfall 76.7 32.2  
Snow Depth 0.00 in    
Sea Level Pressure  
Sea Level Pressure 29.74 in    
Wind  
Wind Speed 19 mph (NNW)    
Max Wind Speed 30 mph    
Max Gust Speed 44 mph    
Visibility 8 miles    
Events Rain , Snow    
T = Trace of Precipitation, MM = Missing Value Source: NWS Daily Summary

Daily Weather History Graph

Daily Weather History Graph

Search for Another Location

Airport or City:

Trip Planner

Search our weather history database for the weather conditions in past years. The results will help you decide how hot, cold, wet, or windy it might be!

Date:

Astronomy

Apr. 14, 2014 Rise Set
Actual Time 6:14 AM CDT 7:31 PM CDT
Civil Twilight 5:45 AM CDT 8:00 PM CDT
Nautical Twilight 5:10 AM CDT 8:35 PM CDT
Astronomical Twilight 4:34 AM CDT 9:11 PM CDT
Moon 7:10 PM CDT (4/14) 5:46 AM CDT (4/14)
Length of Visible Light 14h 15m
Length of Day
13h 17m
Full, 100% of the Moon is Illuminated
Apr 14
Full
Apr 15
Full
Apr 22
Last Quarter
Apr 29
New
May 6
First Quarter

Hourly Weather History & Observations

Time (CDT) Temp. Windchill Dew Point Humidity Pressure Visibility Wind Dir Wind Speed Gust Speed Precip Events Conditions
12:15 AM 62.1 °F - 61.2 °F 97% 29.44 in 10.0 mi SSW 24.2 mph 32.2 mph N/A Rain Rain
12:35 AM 61.3 °F - 57.9 °F 89% 29.42 in 10.0 mi SSW 19.6 mph 29.9 mph N/A Rain Light Rain
12:55 AM 61.7 °F - 59.9 °F 94% 29.40 in 10.0 mi South 17.3 mph 25.3 mph N/A   Overcast
1:15 AM 61.2 °F - 59.4 °F 94% 29.39 in 10.0 mi South 19.6 mph 26.5 mph N/A   Overcast
1:35 AM 61.7 °F - 59.9 °F 94% 29.38 in 10.0 mi South 19.6 mph 27.6 mph N/A   Overcast
1:55 AM 62.1 °F - 60.1 °F 93% 29.37 in 10.0 mi South 27.6 mph 35.7 mph 0.01 in   Overcast
2:15 AM 62.6 °F - 58.6 °F 87% 29.36 in 10.0 mi SSW 27.6 mph 38.0 mph N/A   Overcast
2:35 AM 61.5 °F - 61.2 °F 99% 29.37 in 4.0 mi SW 28.8 mph 43.7 mph 0.04 in Rain Light Rain
2:55 AM 60.8 °F - 57.2 °F 88% 29.37 in 10.0 mi SW 29.9 mph 38.0 mph N/A   Overcast
3:15 AM 58.6 °F - 53.6 °F 83% 29.38 in 10.0 mi WSW 23.0 mph 34.5 mph N/A   Overcast
3:35 AM 58.1 °F - 53.1 °F 83% 29.37 in 10.0 mi SW 25.3 mph 39.1 mph N/A   Overcast
3:55 AM 57.2 °F - 52.9 °F 85% 29.38 in 10.0 mi SW 23.0 mph 32.2 mph N/A   Overcast
4:15 AM 56.3 °F - 51.8 °F 85% 29.40 in 10.0 mi WSW 24.2 mph 33.4 mph N/A   Overcast
4:35 AM 53.6 °F - 50.0 °F 88% 29.42 in 10.0 mi WSW 23.0 mph 32.2 mph N/A   Overcast
4:55 AM 52.7 °F - 52.2 °F 98% 29.45 in 10.0 mi WSW 16.1 mph 28.8 mph N/A   Overcast
5:15 AM 50.7 °F - 50.5 °F 99% 29.48 in 2.5 mi NW 21.9 mph 26.5 mph N/A Rain Rain
5:35 AM 43.0 °F 33.5 °F 43.0 °F 100% 29.51 in 3.0 mi NNW 24.2 mph 32.2 mph N/A   Overcast
5:55 AM 41.7 °F 33.1 °F 41.5 °F 99% 29.53 in 10.0 mi North 18.4 mph 29.9 mph N/A   Overcast
6:15 AM 41.2 °F 32.7 °F 39.4 °F 93% 29.55 in 10.0 mi North 17.3 mph 29.9 mph N/A   Overcast
6:35 AM 41.0 °F 33.1 °F 39.2 °F 93% 29.59 in 10.0 mi North 15.0 mph - N/A   Drizzle
6:55 AM 41.4 °F 33.6 °F 38.8 °F 91% 29.60 in 10.0 mi North 15.0 mph - N/A Rain Light Rain
7:15 AM 40.8 °F 31.7 °F 37.6 °F 88% 29.63 in 10.0 mi North 19.6 mph 24.2 mph 0.01 in Rain Light Rain
7:35 AM 40.5 °F 32.1 °F 36.9 °F 87% 29.65 in 10.0 mi North 16.1 mph - 0.01 in Rain Light Rain
7:55 AM 39.2 °F 29.3 °F 35.2 °F 86% 29.68 in 10.0 mi North 20.7 mph 28.8 mph 0.01 in Rain Light Rain
8:07 AM 39.2 °F 29.3 °F 35.6 °F 87% 29.69 in 7.0 mi North 20.7 mph - 0.01 in Rain Light Rain
8:15 AM 38.5 °F 29.6 °F 35.4 °F 89% 29.70 in 7.0 mi North 16.1 mph - 0.01 in Rain Light Rain
8:35 AM 38.3 °F 30.1 °F 35.4 °F 89% 29.72 in 10.0 mi North 13.8 mph 21.9 mph 0.02 in Rain Light Rain
8:55 AM 39.2 °F 31.6 °F 35.6 °F 87% 29.73 in 10.0 mi North 12.7 mph - N/A   Light Drizzle
9:15 AM 38.8 °F 31.6 °F 35.2 °F 87% 29.73 in 10.0 mi NNE 11.5 mph - N/A   Overcast
9:35 AM 39.6 °F 33.0 °F 35.2 °F 85% 29.75 in 10.0 mi NNE 10.4 mph - N/A   Overcast
9:55 AM 39.7 °F 32.3 °F 34.3 °F 81% 29.76 in 10.0 mi NNE 12.7 mph - N/A   Overcast
10:15 AM 40.1 °F 32.7 °F 34.5 °F 80% 29.78 in 10.0 mi NNE 12.7 mph 18.4 mph N/A   Overcast
10:35 AM 40.1 °F 33.6 °F 34.3 °F 80% 29.81 in 10.0 mi North 10.4 mph - N/A   Overcast
10:55 AM 40.1 °F 33.2 °F 34.9 °F 82% 29.81 in 10.0 mi North 11.5 mph 16.1 mph N/A   Overcast
11:15 AM 39.6 °F 32.5 °F 35.1 °F 84% 29.82 in 10.0 mi NNW 11.5 mph - N/A   Overcast
11:35 AM 39.7 °F 32.7 °F 34.7 °F 82% 29.82 in 10.0 mi North 11.5 mph - N/A   Overcast
11:55 AM 39.9 °F 33.4 °F 35.2 °F 83% 29.83 in 10.0 mi NW 10.4 mph - N/A   Overcast
12:15 PM 40.5 °F 32.1 °F 33.8 °F 77% 29.81 in 10.0 mi North 16.1 mph 19.6 mph N/A   Overcast
12:35 PM 39.6 °F 31.3 °F 34.2 °F 81% 29.82 in 10.0 mi North 15.0 mph - N/A   Overcast
12:55 PM 40.3 °F 33.0 °F 34.0 °F 78% 29.82 in 10.0 mi North 12.7 mph 17.3 mph N/A   Overcast
1:15 PM 40.6 °F 32.7 °F 32.7 °F 73% 29.83 in 10.0 mi North 15.0 mph 18.4 mph N/A   Overcast
1:35 PM 41.0 °F 33.1 °F 32.9 °F 73% 29.83 in 10.0 mi North 15.0 mph - N/A   Overcast
1:55 PM 40.6 °F 32.7 °F 31.8 °F 71% 29.84 in 10.0 mi NNE 15.0 mph - N/A   Overcast
2:15 PM 39.6 °F 31.3 °F 33.3 °F 78% 29.84 in 10.0 mi NNW 15.0 mph - N/A   Overcast
2:35 PM 38.5 °F 28.9 °F 32.7 °F 80% 29.84 in 10.0 mi NNW 18.4 mph 24.2 mph N/A   Overcast
2:55 PM 38.3 °F 30.5 °F 32.4 °F 79% 29.85 in 10.0 mi North 12.7 mph - N/A   Overcast
3:15 PM 37.4 °F 28.2 °F 32.0 °F 81% 29.85 in 10.0 mi NNW 16.1 mph 23.0 mph N/A   Light Drizzle
3:35 PM 37.4 °F 27.5 °F 32.0 °F 81% 29.86 in 10.0 mi NNW 18.4 mph - N/A   Light Drizzle
3:55 PM 35.6 °F 25.9 °F 32.0 °F 87% 29.86 in 10.0 mi NNW 16.1 mph - N/A   Light Drizzle
4:15 PM 35.2 °F 25.8 °F 31.8 °F 87% 29.87 in 7.0 mi North 15.0 mph - N/A   Light Drizzle
4:35 PM 34.7 °F 24.3 °F 32.0 °F 90% 29.87 in 5.0 mi NNW 17.3 mph - N/A   Light Drizzle
4:55 PM 34.7 °F 24.7 °F 30.9 °F 86% 29.88 in 10.0 mi North 16.1 mph 19.6 mph N/A Rain Rain
5:15 PM 34.3 °F 25.0 °F 30.4 °F 85% 29.89 in 7.0 mi NNW 13.8 mph - N/A Snow Snow
5:35 PM 33.4 °F 22.7 °F 30.4 °F 89% 29.89 in 1.8 mi North 17.3 mph - N/A Snow Light Snow
5:55 PM 32.5 °F 23.2 °F 32.2 °F 99% 29.91 in 1.5 mi NNW 12.7 mph 19.6 mph N/A Snow Light Snow
6:15 PM 32.0 °F 21.6 °F 32.0 °F 100% 29.92 in 1.0 mi North 15.0 mph - N/A Snow Light Snow
6:35 PM 32.0 °F 21.6 °F 32.0 °F 100% 29.93 in 1.0 mi NNW 15.0 mph - N/A Snow Light Snow
6:55 PM 32.0 °F 21.2 °F 32.0 °F 100% 29.93 in 0.5 mi North 16.1 mph 20.7 mph N/A Snow Light Snow
7:15 PM 31.6 °F 22.1 °F 31.6 °F 100% 29.94 in 1.0 mi North 12.7 mph - N/A Snow Light Snow
7:35 PM 31.6 °F 21.6 °F 31.6 °F 100% 29.95 in 1.8 mi North 13.8 mph - N/A Snow Light Snow
7:55 PM 31.5 °F 21.8 °F 31.5 °F 100% 29.96 in 2.0 mi North 12.7 mph - N/A Snow Light Snow
8:15 PM 31.1 °F 22.4 °F 31.1 °F 100% 29.97 in 2.0 mi North 10.4 mph - N/A Snow Light Snow
8:35 PM 31.1 °F 21.9 °F 31.1 °F 100% 29.97 in 2.5 mi NNW 11.5 mph 16.1 mph N/A Snow Light Snow
8:55 PM 31.1 °F 20.9 °F 31.1 °F 100% 29.97 in 3.0 mi North 13.8 mph - N/A Snow Light Snow
9:15 PM 31.1 °F 20.9 °F 30.9 °F 99% 29.97 in 7.0 mi North 13.8 mph 19.6 mph N/A Rain Light Freezing Rain
9:35 PM 31.1 °F 21.4 °F 29.1 °F 92% 29.97 in 7.0 mi North 12.7 mph - N/A   Light Freezing Rain
9:55 PM 31.1 °F 22.4 °F 30.7 °F 99% 29.97 in 7.0 mi NNW 10.4 mph - N/A   Light Freezing Rain
10:15 PM 31.1 °F 21.4 °F 31.1 °F 100% 29.97 in 10.0 mi NNW 12.7 mph 16.1 mph N/A Rain Light Freezing Rain
10:35 PM 30.9 °F 20.7 °F 28.4 °F 90% 29.98 in 10.0 mi NNW 13.8 mph - N/A   Overcast
10:55 PM 30.9 °F 20.2 °F 27.0 °F 85% 29.98 in 10.0 mi NNW 15.0 mph - N/A   Overcast
11:15 PM 30.9 °F 19.8 °F 27.0 °F 85% 29.99 in 10.0 mi NNW 16.1 mph 21.9 mph N/A   Overcast
11:35 PM 30.6 °F 21.2 °F 26.4 °F 85% 29.99 in 10.0 mi North 11.5 mph - N/A   Mostly Cloudy
11:55 PM 30.6 °F 21.8 °F 26.2 °F 84% 29.99 in 10.0 mi NNW 10.4 mph - N/A   Mostly Cloudy